Regional Weather Roundup
Issued by NWS

Home | Current Version | Previous Version | Text Only | Print | Product List | Glossary Off
Versions: 1 2 3 4 5 6 7 8 9 10 11 12 13 14 15 16 17 18 19 20 21 22 23 24 25 26 27 28 29 30 31 32 33 34 35 36 37 38 39 40 41 42 43 44 45 46 47 48 49 50

870
ASUS45 KCYS 232110
RWRWY

WYOMING REGIONAL WEATHER ROUNDUP
NATIONAL WEATHER SERVICE CHEYENNE WY
200 PM MST MON JAN 23 2017

NOTE:  "FAIR" INDICATES FEW OR NO CLOUDS BELOW 12,000 FEET
WITH NO SIGNIFICANT WEATHER AND/OR OBSTRUCTIONS TO VISIBILITY.

WYZ001-232200-
YELLOWSTONE NATIONAL PARK

CITY           SKY/WX    TMP DP  RH WIND       PRES   REMARKS
LK YELLOWSTONE   N/A     20  14  77 CALM      29.46F
W YELLOWSTONE  NOT AVBL

$$
WYZ002>013-054>058-071-098>099-232200-
NORTHERN WYOMING

CITY           SKY/WX    TMP DP  RH WIND       PRES   REMARKS
JACKSON        NOT AVBL
CODY           FAIR      25  18  74 NE10      29.58F WCI  15
GREYBULL       FAIR      29  22  75 NW9       29.58F WCI  20
WORLAND        FAIR      27  23  85 NE6       29.57S WCI  20
SHERIDAN       FAIR      29  21  72 W13       29.62S WCI  19
BUFFALO        FAIR      30  19  63 N9        29.58F WCI  22
GILLETTE       FAIR      32  22  66 N9        29.58S WCI  24
HULETT         FAIR      32  21  64 N7        29.59S WCI  26
NEWCASTLE      FAIR      32  28  86 W6        29.57F WCI  26

$$
WYZ014>020-022>026-101>103-232200-
CENTRAL WYOMING

CITY           SKY/WX    TMP DP  RH WIND       PRES   REMARKS
BIG PINEY      LGT SNOW  21  19  92 NW3       29.47F VSB 3/4
PINEDALE       LGT SNOW  27  23  86 CALM      29.46F
DUBOIS         NOT AVBL
LANDER         CLOUDY    26  18  71 CALM      29.51F
RIVERTON       LGT SNOW  24  20  84 W6        29.52F FOG     WCI  17
CASPER         CLOUDY    35  25  66 N7        29.52F WCI  29
DOUGLAS        PTSUNNY   42  25  50 NW13      29.53S

$$
WYZ021-027>030-104>119-232200-
SOUTHERN WYOMING

CITY           SKY/WX    TMP DP  RH WIND       PRES   REMARKS
EVANSTON       FAIR      29  20  69 SW24      29.37F WCI  15
ROCK SPRINGS   LGT SNOW  30  29  96 S8        29.45F VSB 3/4 WCI  22
RAWLINS        FAIR      36  25  64 SW25G35   29.47F WCI  24
LARAMIE        CLOUDY    33  28  81 SW16G24   29.49F WCI  23
CHEYENNE       PTSUNNY   45  19  35 W24G36    29.51F
TORRINGTON     PTSUNNY   45  24  43 CALM      29.51F

$$




USA.gov is the U.S. government's official web portal to all federal, state and local government web resources and services.